Flag for Spain Weather past 2 weeks in Huelva, Spain

Now
70 °F

Passing clouds.


Feels Like: 70 °F
Forecast: 59 / 81 °F
Wind: 12 mph from South

Location: Rota Airport

Current Time: May 22, 2015 at 10:40:23 PM

Latest Report: May 22, 2015 at 10:00 PM


Visibility: N/A

Pressure: 30.01 "Hg

Humidity: 43%

Dew point: 46 °F

Location of HuelvaLocation

Historic Weather in Huelva — Graph

°F

Huelva temperature yesterday

Maximum temperature yesterday: 79 °F (at 2:00 PM)
Minimum temperature yesterday: 63 °F (at 7:00 AM)
Average temperature yesterday: 70 °F

Past Weeks' High & Low Weather Summary

 TemperatureHumidityPressure
High97 °F (May 13, 3:00 PM)100% (May 19, 5:00 AM)30.24 "Hg (May 19, 5:00 AM)
Low57 °F (May 9, 8:00 AM)13% (May 13, 3:00 PM)29.83 "Hg (May 19, 6:00 AM)
Average72 °F58%30.06 "Hg
* Reported May 7 9:00 PM — May 22 9:00 PM, Huelva, Weather by CustomWeather, © 2015

Note: Actual official high and low records may vary slightly from our data, if they occured in-between our weather recording intervals... More about our weather records

Advertising

Huelva weather history for previous 24 hours

 ConditionsComfort  
Time TempWeatherWind HumidityBarometerVisibility
9:00 PM
Fri, May 22
72 °FPassing clouds.9 mph44%30.01 "HgN/A
8:00 PM73 °FPassing clouds.9 mph57%29.98 "HgN/A
7:00 PM75 °FPassing clouds.10 mph50%30.01 "HgN/A
6:00 PM77 °FSunny.9 mph44%30.01 "Hg10 mi
5:00 PM77 °FPassing clouds.9 mph44%30.01 "HgN/A
4:00 PM79 °FPassing clouds.9 mph39%30.01 "HgN/A
3:00 PM79 °FPassing clouds.12 mph32%30.04 "HgN/A
2:00 PM79 °FPassing clouds.12 mph34%30.04 "HgN/A
1:00 PM77 °FSunny.10 mph32%30.07 "Hg10 mi
12:00 PM77 °FPassing clouds.18 mph30%30.07 "HgN/A
11:00 AM75 °FPassing clouds.14 mph31%30.09 "HgN/A
10:00 AM72 °FSunny.14 mph36%30.09 "Hg10 mi
9:00 AM66 °FSunny.10 mph43%30.09 "Hg10 mi
8:00 AM61 °FClear.7 mph55%30.09 "Hg10 mi
7:00 AM59 °FClear.2 mph63%30.09 "Hg10 mi
6:00 AM61 °FClear.7 mph63%30.09 "Hg10 mi
5:00 AM61 °FClear.8 mph63%30.09 "Hg10 mi
4:00 AM64 °FClear.10 mph52%30.09 "Hg10 mi
3:00 AM63 °FClear.8 mph56%30.12 "Hg10 mi
2:00 AM64 °FClear.8 mph56%30.12 "Hg10 mi
1:00 AM66 °FClear.12 mph52%30.15 "Hg10 mi
12:00 AM68 °FPassing clouds.13 mph49%30.15 "HgN/A
11:00 PM
Thu, May 21
68 °FPassing clouds.14 mph49%30.15 "HgN/A
10:00 PM70 °FSunny.12 mph53%30.12 "Hg10 mi
Weather by CustomWeather, © 2015

See weather overviewHow to use our weather pages